Location: Monfort
(47.1967°N, 0.2115°W)
Time: 04:15:24
(UTC+00:00)

Cosmos 1655 Rocket - Pass Details

Date: 24 October 2020
Orbit: 971 x 1006 km, 82.9° (Epoch: 01 December)

Event Time Altitude Azimuth Distance (km) Brightness Sun altitude
Rises 17:30:01 0° 349° (N) 3,740 7.1 -6.3°
Reaches altitude 10° 17:32:33 10° 348° (NNW) 2,789 6.4 -6.8°
Maximum altitude 17:38:57 74° 265° (W) 1,046 4.4 -7.8°
Drops below altitude 10° 17:45:18 10° 181° (S) 2,773 6.5 -8.9°
Sets 17:47:49 0° 180° (S) 3,717 7.1 -9.3°
